Flag for China Weather past 2 weeks in Changchun, Jilin, China

Now
3 °F

Ice fog.


Feels Like: -10 °F
Forecast: -2 / 10 °F
Wind: 8 mph from Southwest

Location: Changchun Airport

Current Time: Dec 21, 2014 at 12:58:53 PM

Latest Report: Dec 21, 2014 at 12:00 PM


Visibility: 2 mi

Pressure: 30.07 "Hg

Humidity: 66%

Dew point: -6 °F

Location of ChangchunLocation

Historic Weather in Changchun — Graph

°F

Changchun temperature yesterday

Maximum temperature yesterday: 3 °F (at 11:00 AM)
Minimum temperature yesterday: -6 °F (at 8:00 PM)
Average temperature yesterday: -1 °F

Past Weeks' High & Low Weather Summary

 TemperatureHumidityPressure
High28 °F (Dec 10, 12:00 PM)93% (Dec 10, 8:00 AM)30.60 "Hg (Dec 10, 8:00 AM)
Low-22 °F (Dec 17, 6:00 AM)41% (Dec 8, 12:00 PM)30.01 "Hg (Dec 10, 11:00 AM)
Average2 °F69%30.26 "Hg
* Reported Dec 6 12:00 Noon — Dec 21 12:00 Noon, Changchun, Weather by CustomWeather, © 2014

Note: Actual official high and low records may vary slightly from our data, if they occured in-between our weather recording intervals... More about our weather records

Advertising

Changchun weather history for previous 24 hours

 ConditionsComfort  
Time TempWeatherWind HumidityBarometerVisibility
12:00 PM
Dec 21
3 °FIce fog.8 mph66%30.07 "Hg2 mi
11:00 AM1 °FIce fog.6 mph78%30.09 "Hg1 mi
10:00 AM0 °FLight snow. Ice fog.6 mph78%30.12 "Hg1 mi
9:00 AM-2 °FIce fog.3 mph77%30.12 "Hg1 mi
8:00 AM-4 °FIce fog.3 mph77%30.12 "Hg1 mi
7:00 AM-6 °FIce fog.3 mph77%30.09 "Hg2 mi
6:00 AM-8 °FIce fog.3 mph77%30.12 "Hg2 mi
5:00 AM-9 °FLight snow. Ice fog.6 mph77%30.09 "Hg2 mi
4:00 AM-6 °FLight snow. Ice fog.3 mph77%30.12 "Hg2 mi
3:00 AM-4 °FLight snow. Ice fog.3 mph71%30.15 "Hg2 mi
2:00 AM-4 °FLight snow. Ice fog.3 mph77%30.15 "Hg1 mi
1:00 AM-4 °FLight snow. Ice fog.3 mph77%30.15 "Hg1 mi
12:00 AM-6 °FLight snow. Ice fog.6 mph77%30.18 "Hg2 mi
11:00 PM
Dec 20
-4 °FLight snow. Ice fog.3 mph71%30.21 "Hg2 mi
10:00 PM-2 °FLight snow. Ice fog.6 mph71%30.21 "Hg2 mi
9:00 PM-4 °FIce fog.6 mph71%30.24 "Hg2 mi
8:00 PM-6 °FIce fog.3 mph70%30.24 "Hg2 mi
7:00 PM-4 °FIce fog.3 mph71%30.24 "Hg2 mi
6:00 PM-2 °FIce fog.3 mph71%30.24 "Hg2 mi
5:00 PM-4 °FIce fog.1 mph65%30.24 "Hg3 mi
4:00 PM1 °FIce fog.No wind55%30.21 "Hg2 mi
3:00 PM1 °FIce fog.1 mph60%30.21 "Hg3 mi
2:00 PM3 °FIce fog.3 mph55%30.21 "Hg3 mi
1:00 PM3 °FIce fog.3 mph55%30.21 "Hg3 mi
12:00 PM1 °FIce fog.6 mph60%30.21 "Hg2 mi
Weather by CustomWeather, © 2014

See weather overviewHow to use our weather pages